Location: Newark
(47.5833°N, 8.1500°E)
Time: 12:03:22
(UTC+00:00)

Transit 2A - Pass Details

Date: 02 November 2020
Orbit: 595 x 964 km, 66.7° (Epoch: 27 November)

Event Time Altitude Azimuth Distance (km) Brightness Sun altitude
Rises 03:59:23 0° 310° (NW) 3,599 - -22.9°
Exits shadow 04:03:25 - 336° (NNW) 2,691 8.6 -22.3°
Reaches altitude 10° 04:04:08 10° 342° (NNW) 2,587 8.6 -22.2°
Maximum altitude 04:06:07 12° 1° (N) 2,436 8.6 -21.8°
Drops below altitude 10° 04:08:05 10° 21° (NNE) 2,512 8.9 -21.5°
Sets 04:12:29 0° 54° (NE) 3,348 10.2 -20.7°
